Montauk, NY

4:31 AM EDT on August 24, 2016 (GMT -0400)
Montauk

Weather History for KMTP - April, 2013

Change the Weather History Date:

Sunday, April 28, 2013

  Actual Average (KHTO) Record (KHTO)
Temperature  
Mean Temperature 48 °F -  
Max Temperature 59 °F 58 °F 83 °F (1990)
Min Temperature 39 °F 42 °F 30 °F (1972)
Degree Days  
Heating Degree Days 17    
Moisture  
Dew Point 42 °F    
Average Humidity 78    
Maximum Humidity 97    
Minimum Humidity 44    
Precipitation  
Precipitation 0.00 in - - ()
Sea Level Pressure  
Sea Level Pressure 30.32 in    
Wind  
Wind Speed 2 mph (SSE)    
Max Wind Speed 8 mph    
Max Gust Speed -    
Averages and records for this station are not official NWS values.
T = Trace of Precipitation, MM = Missing Value Source: NWS Daily Summary

Daily Weather History Graph

Daily Weather History Graph

Search for Another Location

Airport or City:

Trip Planner

Search our weather history database for the weather conditions in past years. The results will help you decide how hot, cold, wet, or windy it might be!

Date:

Astronomy

Apr. 28, 2013 Rise Set
Actual Time 5:49 AM EDT 7:41 PM EDT
Civil Twilight 5:19 AM EDT 8:11 PM EDT
Nautical Twilight 4:43 AM EDT 8:47 PM EDT
Astronomical Twilight 4:04 AM EDT 9:26 PM EDT
Moon 11:10 PM EDT (4/28) 8:01 AM EDT (4/28)
Length of Visible Light 14h 51m
Length of Day
13h 52m
Waning Gibbous, 89% of the Moon is Illuminated
Apr 28
Waning Gibbous
May 2
Last Quarter
May 9
New
May 18
First Quarter
May 25
Full

Hourly Weather History & Observations

Time (EDT) Temp. Dew Point Humidity Pressure Visibility Wind Dir Wind Speed Gust Speed Precip Events Conditions
12:54 AM 43.0 °F 42.1 °F 97% 30.36 in - Calm Calm - N/A   Unknown
1:54 AM 42.1 °F 41.0 °F 96% 30.34 in - Calm Calm - N/A   Unknown
2:54 AM 41.0 °F 39.9 °F 96% 30.33 in - Calm Calm - N/A   Unknown
3:54 AM 39.0 °F 37.9 °F 96% 30.32 in - Calm Calm - N/A   Unknown
4:54 AM 39.0 °F 37.0 °F 93% 30.31 in - Calm Calm - N/A   Unknown
5:54 AM 41.0 °F 39.0 °F 93% 30.32 in - Calm Calm - N/A   Unknown
6:54 AM 45.0 °F 43.0 °F 93% 30.33 in - Calm Calm - N/A   Unknown
7:54 AM 48.0 °F 44.1 °F 86% 30.35 in - Calm Calm - N/A   Unknown
8:54 AM 50.0 °F 42.1 °F 74% 30.36 in - SSE 3.5 mph - N/A   Unknown
9:54 AM 55.0 °F 39.9 °F 57% 30.37 in - SSE 4.6 mph - N/A   Unknown
10:54 AM 55.0 °F 41.0 °F 59% 30.36 in - Variable 3.5 mph - N/A   Unknown
11:54 AM 55.0 °F 43.0 °F 64% 30.36 in - Variable 5.8 mph - N/A   Unknown
12:54 PM 57.0 °F 42.1 °F 57% 30.34 in - Variable 3.5 mph - N/A   Unknown
1:54 PM 57.0 °F 39.9 °F 53% 30.34 in - SSE 6.9 mph - N/A   Unknown
2:54 PM 57.9 °F 36.0 °F 44% 30.32 in - SSE 4.6 mph - N/A   Unknown
3:54 PM 57.0 °F 37.9 °F 49% 30.31 in - South 6.9 mph - N/A   Unknown
4:54 PM 55.0 °F 44.1 °F 67% 30.30 in - South 8.1 mph - N/A   Unknown
5:54 PM 54.0 °F 46.0 °F 75% 30.31 in - South 5.8 mph - N/A   Unknown
6:54 PM 52.0 °F 46.0 °F 80% 30.29 in - Variable 3.5 mph - N/A   Unknown
7:54 PM 50.0 °F 46.9 °F 89% 30.28 in - SSE 5.8 mph - N/A   Unknown
8:54 PM 50.0 °F 46.9 °F 89% 30.29 in - SE 4.6 mph - N/A   Unknown
9:54 PM 50.0 °F 46.9 °F 89% 30.29 in - SE 4.6 mph - N/A   Unknown
10:54 PM 50.0 °F 48.0 °F 93% 30.29 in - SSE 3.5 mph - N/A   Unknown
11:54 PM 50.0 °F 46.9 °F 89% 30.30 in - Variable 3.5 mph - N/A   Unknown